Location: Ergnies
(50.0854°N, 2.0375°E)
Time: 14:57:13
(UTC+00:00)

Cosmos 2181 Rocket - Pass Details

Date: 14 January 2026
Orbit: 952 x 1013 km, 82.9° (Epoch: 18 February)

Event Time Altitude Azimuth Distance (km) Brightness Sun altitude
Rises 04:41:17 0° 351° (N) 3,711 7.0 -28.8°
Reaches altitude 10° 04:43:50 10° 355° (N) 2,767 6.3 -28.4°
Maximum altitude 04:50:09 64° 77° (ENE) 1,103 4.4 -27.4°
Drops below altitude 10° 04:56:31 10° 159° (SSE) 2,782 6.6 -26.4°
Sets 04:59:05 0° 162° (SSE) 3,732 7.3 -26.0°
